Погода в Эль Тигре

Венесуэла     8°53′50″N   64°15′53″W
темп.,
°C
ветер,
м/с
пор.,
м/с
влажн.,
%
обл.,
%
осадки,
мм/ч
давл.,
гПа
погр.,
м
1 декабря, ср
ср123:00+24всв5118292 0.9 1012653
02:00+23всв41188100 0.9 1011630
05:00+23св4109361 0.0 1011507
08:00+25всв488045 0.0 1013584
11:00+30в6856100 0.3 10131549
14:00+25всв5981100 3.6 1011741
17:00+24всв41083100 0.1 1010695
20:00+24всв51187100 0.1 1012686
2 декабря, чт
чт223:00+23всв4119067 0.0 1013652
02:00+22всв4119567 0.0 1012607
05:00+22всв4119363 0.0 1012649
08:00+24в5118469 0.0 1014702
11:00+30всв6851100 0.0 10131601
14:00+33в563893 0.0 10092453
17:00+30в564994 0.0 10081275
20:00+26всв4967100 0.1 1011514
3 декабря, пт
пт323:00+24всв41079100 0.0 1012505
02:00+23всв4987100 0.0 1010459
05:00+22всв3993100 0.0 1010384
08:00+24всв598276 0.0 1013501
11:00+29в5652100 0.0 10121328
14:00+31в4542100 0.0 10081872
17:00+30в3445100 0.0 10071234
20:00+27в4962100 0.0 1010416
4 декабря, сб
сб423:00+24всв4975100 0.0 1011449
02:00+23всв41085100 0.0 1010473
05:00+22всв499324 0.0 1011394
08:00+24всв598186 0.0 1013515
11:00+29в5651100 0.0 10131318
14:00+32в464198 0.0 10092199
17:00+31в564188 0.0 10081479
20:00+27всв510575 0.0 1011602
5 декабря, вс
вс523:00+24всв511785 0.0 1012558
02:00+23всв5118670 0.0 1011545
05:00+22всв4119431 0.0 1012498
08:00+24всв5108128 0.0 1014631
11:00+30в684918 0.0 10131591
14:00+33в573764 0.0 10102447
17:00+30всв574776 0.0 10101362
20:00+26всв610655 0.0 1012640